Location: Novo Ouro Preto
(19.8840°S, 43.9844°W)
Time: 09:55:41
(UTC+00:00)

Cosmos 1816 Rocket - Pass Details

Date: 18 September 2020
Orbit: 951 x 999 km, 82.9° (Epoch: 22 October)

Event Time Altitude Azimuth Distance (km) Brightness Sun altitude
Rises 21:36:06 0° 3° (N) 3,631 7.4 -11.4°
Reaches altitude 10° 21:38:35 10° 6° (N) 2,697 6.7 -12.0°
Maximum altitude 21:44:43 68° 87° (E) 1,047 4.4 -13.4°
Drops below altitude 10° 21:50:59 10° 169° (S) 2,757 6.8 -14.9°
Sets 21:53:33 0° 171° (S) 3,717 7.5 -15.5°
